Weather History for Key West NAF, FL

Change the Weather History Date:

Sunday, April 6, 2014

  Actual Average Record
Temperature  
Mean Temperature 78 °F -  
Max Temperature 84 °F 79 °F 88 °F (2009)
Min Temperature 71 °F 70 °F 58 °F (1987)
Cooling Degree Days 12    
Growing Degree Days 28 (Base 50)    
Moisture  
Dew Point 69 °F    
Average Humidity 75    
Maximum Humidity 87    
Minimum Humidity 61    
Precipitation  
Precipitation 0.00 in - - ()
Sea Level Pressure  
Sea Level Pressure 29.98 in    
Wind  
Wind Speed 10 mph (ESE)    
Max Wind Speed 16 mph    
Max Gust Speed -    
Visibility 10 miles    
Events      
Averages and records for this station are not official NWS values.
T = Trace of Precipitation, MM = Missing Value Source: NWS Daily Summary

Daily Weather History Graph

Daily Weather History Graph

Search for Another Location

Airport:

Trip Planner

Search our weather history database for the weather conditions in past years. The results will help you decide how hot, cold, wet, or windy it might be!

Date:

Astronomy

Apr. 06, 2014 Rise Set
Actual Time 7:13 AM EDT 7:45 PM EDT
Civil Twilight 6:50 AM EDT 8:08 PM EDT
Nautical Twilight 6:23 AM EDT 8:35 PM EDT
Astronomical Twilight 5:56 AM EDT 9:02 PM EDT
Moon 12:32 PM EDT (4/6) 1:20 AM EDT (4/6)
Length of Visible Light 13h 17m
Length of Day
12h 31m
Waxing Crescent, 43% of the Moon is Illuminated
Apr 6
Waxing Crescent
Apr 7
First Quarter
Apr 15
Full
Apr 22
Last Quarter
Apr 29
New

Hourly Weather History & Observations

Time (EDT) Temp. Heat Index Dew Point Humidity Pressure Visibility Wind Dir Wind Speed Gust Speed Precip Events Conditions
12:53 AM 73.0 °F - 66.9 °F 81% 30.04 in 10.0 mi ESE 5.8 mph - N/A   Clear
1:53 AM 72.0 °F - 66.0 °F 81% 30.03 in 10.0 mi ESE 6.9 mph - N/A   Clear
2:53 AM 73.0 °F - 68.0 °F 84% 30.01 in 10.0 mi East 8.1 mph - N/A   Clear
3:53 AM 73.0 °F - 69.1 °F 87% 30.00 in 10.0 mi East 8.1 mph - N/A   Partly Cloudy
4:53 AM 73.9 °F - 69.1 °F 85% 29.99 in 10.0 mi ENE 6.9 mph - N/A   Partly Cloudy
5:53 AM 71.1 °F - 64.9 °F 81% 29.99 in 10.0 mi East 6.9 mph - N/A   Clear
5:57 AM 72.0 °F - 64.9 °F 78% 29.99 in 10.0 mi East 8.1 mph - N/A   Partly Cloudy
6:53 AM 73.0 °F - 64.9 °F 76% 30.00 in 10.0 mi ESE 9.2 mph - N/A   Partly Cloudy
7:53 AM 75.0 °F - 66.0 °F 73% 30.01 in 10.0 mi ESE 12.7 mph - N/A   Mostly Cloudy
8:53 AM 78.1 °F - 66.0 °F 66% 30.01 in 10.0 mi SE 12.7 mph - N/A   Scattered Clouds
9:53 AM 80.1 °F 82.7 °F 68.0 °F 67% 30.01 in 10.0 mi SE 15.0 mph - N/A   Scattered Clouds
10:53 AM 81.0 °F 83.8 °F 68.0 °F 65% 30.01 in 10.0 mi SSE 13.8 mph - N/A   Overcast
11:53 AM 82.0 °F 85.5 °F 69.1 °F 65% 30.01 in 10.0 mi SE 15.0 mph - N/A   Overcast
12:53 PM 84.0 °F 87.8 °F 69.1 °F 61% 29.99 in 10.0 mi SE 16.1 mph - N/A   Overcast
1:53 PM 82.9 °F 87.0 °F 70.0 °F 65% 29.97 in 10.0 mi SE 15.0 mph - N/A   Overcast
2:53 PM 82.9 °F 87.0 °F 70.0 °F 65% 29.94 in 10.0 mi SSE 15.0 mph - N/A   Mostly Cloudy
3:53 PM 81.0 °F 84.4 °F 70.0 °F 69% 29.93 in 10.0 mi ESE 12.7 mph - N/A   Mostly Cloudy
4:53 PM 81.0 °F 84.4 °F 70.0 °F 69% 29.92 in 10.0 mi ESE 11.5 mph - N/A   Mostly Cloudy
5:53 PM 80.1 °F 83.2 °F 70.0 °F 71% 29.92 in 10.0 mi East 11.5 mph - N/A   Scattered Clouds
6:53 PM 79.0 °F - 71.1 °F 77% 29.92 in 10.0 mi ENE 12.7 mph - N/A   Mostly Cloudy
7:53 PM 78.1 °F - 71.1 °F 79% 29.93 in 10.0 mi East 11.5 mph - N/A   Mostly Cloudy
8:53 PM 77.0 °F - 72.0 °F 84% 29.94 in 10.0 mi East 10.4 mph - N/A   Scattered Clouds
9:53 PM 77.0 °F - 72.0 °F 84% 29.96 in 10.0 mi East 12.7 mph - N/A   Scattered Clouds
10:53 PM 77.0 °F - 72.0 °F 84% 29.98 in 10.0 mi ESE 13.8 mph - N/A   Scattered Clouds
11:53 PM 77.0 °F - 72.0 °F 84% 29.98 in 10.0 mi ESE 12.7 mph - N/A   Overcast